Location: Melara
(45.0500°N, 11.1833°E)
Time: 22:55:10
(UTC+00:00)

USA 307 - Pass Details

Date: 26 May 2022
Orbit: 552 x 554 km, 54.0° (Epoch: 17 June)

Event Time Altitude Azimuth Distance (km) Brightness Sun altitude
Exits shadow 01:47:50 - 275° (W) 1,881 5.2 -15.0°
Reaches altitude 10° 01:47:57 10° 275° (W) 1,838 5.2 -15.0°
Maximum altitude 01:51:45 33° 341° (NNW) 947 4.3 -14.5°
Drops below altitude 10° 01:55:35 10° 47° (NE) 1,845 6.9 -14.1°
Sets 01:58:00 0° 57° (ENE) 2,743 7.9 -13.9°
